KC4KQE Weather Reports


Display with metric or nautical units.
time (UTC)temp
F
wind
direction
speed
MPH
gust
MPH
rain 1hr
in
rain 24hr
in
rain mn
in
humidity
%
barometer
mb
20260831053916 87 199 0.0 1.0 0.00 0.00 0.00 50 1012.8
20260831053417 87 200 0.0 3.0 0.00 0.00 0.00 50 1012.9
20260831052918 87 198 1.0 3.0 0.00 0.00 0.00 50 1012.9
20260831052416 87 253 0.0 5.0 0.00 0.00 0.00 50 1012.9
20260831051916 87 290 3.0 4.0 0.00 0.00 0.00 50 1012.8
20260831051416 87 280 1.0 3.0 0.00 0.00 0.00 50 1012.8
20260831050916 87 290 2.0 6.0 0.00 0.00 0.00 49 1012.9
20260831050416 88 259 4.0 14.0 0.00 0.00 0.00 49 1013.2
20260831045917 89 234 4.0 10.0 0.00 0.00 0.00 48 1013.0
20260831045417 90 222 4.0 9.0 0.00 0.00 0.00 46 1012.7
20260831044916 90 212 3.0 5.0 0.00 0.00 0.00 44 1012.7
20260831044417 90 259 2.0 7.0 0.00 0.00 0.00 44 1012.5
20260831043916 90 275 4.0 9.0 0.00 0.00 0.00 43 1012.4
20260831043416 91 278 3.0 9.0 0.00 0.00 0.00 42 1012.3
20260831042916 91 256 3.0 14.0 0.00 0.00 0.00 41 1012.2
20260831042416 91 242 4.0 9.0 0.00 0.00 0.00 40 1012.2
20260831041916 91 209 3.0 15.0 0.00 0.00 0.00 40 1012.1
20260831041416 92 260 6.0 13.0 0.00 0.00 0.00 39 1012.1
20260831040918 95 224 9.0 24.0 0.00 0.00 0.00 36 1012.0
20260831040418 95 241 3.0 3.0 0.00 0.00 0.00 34 1011.5
20260831035916 95 294 0.0 0.0 0.00 0.00 0.00 34 1011.3
20260831035416 95 294 0.0 0.0 0.00 0.00 0.00 34 1011.3
20260831034918 95 294 0.0 0.0 0.00 0.00 0.00 34 1011.2
20260831034416 95 294 0.0 0.0 0.00 0.00 0.00 33 1011.2
20260831033916 95 294 0.0 1.0 0.00 0.00 0.00 33 1011.2
20260831033416 95 309 0.0 0.0 0.00 0.00 0.00 33 1011.2
20260831032916 95 309 0.0 0.0 0.00 0.00 0.00 33 1011.2
20260831032417 95 309 0.0 1.0 0.00 0.00 0.00 33 1011.1
20260831031917 96 309 1.0 1.0 0.00 0.00 0.00 33 1011.0
20260831031416 96 310 0.0 1.0 0.00 0.00 0.00 32 1010.8
20260831030917 97 310 0.0 1.0 0.00 0.00 0.00 32 1010.8
20260831030416 97 310 1.0 2.0 0.00 0.00 0.00 31 1010.8
20260831025916 97 304 1.0 3.0 0.00 0.00 0.00 31 1010.8
20260831025416 97 295 1.0 2.0 0.00 0.00 0.00 31 1010.7
20260831024916 97 298 1.0 4.0 0.00 0.00 0.00 31 1010.6
20260831024416 97 294 1.0 4.0 0.00 0.00 0.00 31 1010.6
20260831023917 97 290 1.0 5.0 0.00 0.00 0.00 30 1010.5
20260831023416 98 302 2.0 5.0 0.00 0.00 0.00 30 1010.4
20260831022916 98 271 3.0 6.0 0.00 0.00 0.00 30 1010.2
20260831022416 98 279 4.0 5.0 0.00 0.00 0.00 30 1010.1
20260831021917 98 292 4.0 5.0 0.00 0.00 0.00 30 1010.0
20260831021416 98 295 3.0 4.0 0.00 0.00 0.00 30 1010.0
20260831020916 98 279 0.0 4.0 0.00 0.00 0.00 30 1010.0
20260831020416 98 308 1.0 2.0 0.00 0.00 0.00 29 1010.0
20260831015916 98 318 0.0 5.0 0.00 0.00 0.00 29 1009.9
20260831015416 98 292 2.0 4.0 0.00 0.00 0.00 30 1009.8
20260831014916 98 317 1.0 4.0 0.00 0.00 0.00 29 1009.7
20260831014417 98 273 3.0 3.0 0.00 0.00 0.00 29 1009.6
20260831013916 99 264 0.0 2.0 0.00 0.00 0.00 30 1009.6
20260831013416 99 299 1.0 3.0 0.00 0.00 0.00 28 1009.5
20260831012917 99 322 2.0 4.0 0.00 0.00 0.00 28 1009.5
20260831012417 99 299 2.0 4.0 0.00 0.00 0.00 28 1009.5
20260831011916 99 313 0.0 4.0 0.00 0.00 0.00 28 1009.6
20260831011416 100 298 2.0 6.0 0.00 0.00 0.00 27 1009.6
20260831010917 100 306 3.0 5.0 0.00 0.00 0.00 27 1009.6
20260831010416 100 238 3.0 4.0 0.00 0.00 0.00 27 1009.6
20260831005916 100 227 1.0 4.0 0.00 0.00 0.00 27 1009.7
20260831005416 101 240 4.0 9.0 0.00 0.00 0.00 27 1009.7
20260831004916 101 190 1.0 4.0 0.00 0.00 0.00 27 1009.7
20260831004417 101 203 2.0 6.0 0.00 0.00 0.00 27 1009.8
20260831003916 101 213 1.0 6.0 0.00 0.00 0.00 27 1009.8
20260831003416 101 186 2.0 7.0 0.00 0.00 0.00 27 1009.8
20260831002918 101 279 4.0 5.0 0.00 0.00 0.00 27 1009.8
20260831002416 101 183 5.0 7.0 0.00 0.00 0.00 26 1009.8
20260831001916 102 216 3.0 9.0 0.00 0.00 0.00 26 1009.9
20260831001416 102 228 3.0 7.0 0.00 0.00 0.00 26 1009.8
20260831000916 101 317 4.0 5.0 0.00 0.00 0.00 27 1009.9
20260831000417 101 182 0.0 5.0 0.00 0.00 0.00 27 1009.9
20260830235917 101 239 3.0 8.0 0.00 0.00 0.00 26 1010.0
20260830235416 102 205 5.0 9.0 0.00 0.00 0.00 26 1010.0
20260830234916 102 300 3.0 5.0 0.00 0.00 0.00 26 1009.9
20260830234418 101 172 2.0 4.0 0.00 0.00 0.00 25 1010.1
20260830233916 102 234 3.0 14.0 0.00 0.00 0.00 25 1010.1
20260830233416 102 262 10.0 11.0 0.00 0.00 0.00 26 1010.1
20260830232917 101 142 3.0 6.0 0.00 0.00 0.00 27 1010.2
20260830232418 101 238 2.0 3.0 0.00 0.00 0.00 28 1010.2
20260830231916 101 235 0.0 5.0 0.00 0.00 0.00 27 1010.3
20260830231417 101 249 5.0 8.0 0.00 0.00 0.00 27 1010.5
20260830230916 102 320 5.0 8.0 0.00 0.00 0.00 27 1010.5
20260830230416 102 252 5.0 10.0 0.00 0.00 0.00 26 1010.6
20260830225916 103 272 6.0 8.0 0.00 0.00 0.00 26 1010.7
20260830225416 102 262 6.0 9.0 0.00 0.00 0.00 26 1010.7
20260830224916 102 290 6.0 13.0 0.00 0.00 0.00 27 1010.8
20260830224417 101 242 3.0 8.0 0.00 0.00 0.00 28 1010.9
20260830223916 101 121 2.0 6.0 0.00 0.00 0.00 28 1011.0
20260830223416 101 230 2.0 7.0 0.00 0.00 0.00 28 1011.1
20260830222917 101 199 1.0 7.0 0.00 0.00 0.00 28 1011.1
20260830222416 101 225 4.0 8.0 0.00 0.00 0.00 28 1011.2
20260830221916 102 331 2.0 6.0 0.00 0.00 0.00 28 1011.3
20260830221416 102 193 6.0 7.0 0.00 0.00 0.00 28 1011.3
20260830220916 102 211 3.0 8.0 0.00 0.00 0.00 28 1011.4
20260830220416 102 232 4.0 10.0 0.00 0.00 0.00 28 1011.5
20260830215916 102 199 5.0 12.0 0.00 0.00 0.00 28 1011.6
20260830215416 100 259 3.0 9.0 0.00 0.00 0.00 29 1011.8
20260830214916 101 190 4.0 8.0 0.00 0.00 0.00 28 1011.8
20260830214416 101 233 4.0 7.0 0.00 0.00 0.00 28 1011.9
20260830213916 101 69 3.0 6.0 0.00 0.00 0.00 28 1012.0
20260830213416 100 32 1.0 3.0 0.00 0.00 0.00 30 1012.1
20260830212916 99 242 2.0 4.0 0.00 0.00 0.00 30 1012.2
20260830212416 99 153 2.0 7.0 0.00 0.00 0.00 29 1012.4
20260830211916 100 188 6.0 8.0 0.00 0.00 0.00 28 1012.4
20260830211416 101 139 3.0 8.0 0.00 0.00 0.00 29 1012.5
20260830210916 101 175 7.0 10.0 0.00 0.00 0.00 28 1012.6
20260830210416 100 227 3.0 7.0 0.00 0.00 0.00 29 1012.7
20260830205916 100 185 3.0 4.0 0.00 0.00 0.00 28 1012.8
20260830205416 100 205 2.0 9.0 0.00 0.00 0.00 29 1012.9
20260830204916 100 215 5.0 7.0 0.00 0.00 0.00 29 1012.9
20260830204417 100 246 1.0 9.0 0.00 0.00 0.00 29 1013.0
20260830203916 101 250 9.0 9.0 0.00 0.00 0.00 29 1013.1
20260830203416 100 219 0.0 10.0 0.00 0.00 0.00 29 1013.2
20260830202916 99 5 1.0 5.0 0.00 0.00 0.00 30 1013.3
20260830202416 99 94 2.0 8.0 0.00 0.00 0.00 30 1013.4
20260830201916 99 132 5.0 7.0 0.00 0.00 0.00 30 1013.5
20260830201416 99 163 1.0 8.0 0.00 0.00 0.00 30 1013.6
20260830200916 99 262 9.0 10.0 0.00 0.00 0.00 30 1013.6
20260830200416 99 214 1.0 6.0 0.00 0.00 0.00 31 1013.6
20260830195916 100 238 5.0 8.0 0.00 0.00 0.00 30 1013.7
20260830195416 99 232 3.0 6.0 0.00 0.00 0.00 31 1013.7
20260830194917 99 202 2.0 9.0 0.00 0.00 0.00 31 1013.7
20260830194416 99 103 0.0 9.0 0.00 0.00 0.00 31 1013.8
20260830193916 99 202 1.0 9.0 0.00 0.00 0.00 32 1013.8
20260830193416 98 188 7.0 10.0 0.00 0.00 0.00 32 1013.9
20260830192916 97 281 3.0 5.0 0.00 0.00 0.00 32 1014.0
20260830192416 98 326 4.0 12.0 0.00 0.00 0.00 32 1014.1
20260830191916 98 254 7.0 10.0 0.00 0.00 0.00 32 1014.2
20260830191418 98 192 3.0 8.0 0.00 0.00 0.00 32 1014.3
20260830190918 97 110 7.0 7.0 0.00 0.00 0.00 33 1014.4
20260830190416 98 183 3.0 9.0 0.00 0.00 0.00 32 1014.5
20260830185916 97 246 7.0 10.0 0.00 0.00 0.00 33 1014.6
20260830185416 98 216 5.0 10.0 0.00 0.00 0.00 32 1014.6
20260830184916 98 207 7.0 11.0 0.00 0.00 0.00 33 1014.7
20260830184416 97 219 4.0 12.0 0.00 0.00 0.00 33 1014.8
20260830183917 97 250 3.0 7.0 0.00 0.00 0.00 33 1014.9
20260830183416 97 238 5.0 10.0 0.00 0.00 0.00 33 1014.9
20260830182916 97 225 6.0 11.0 0.00 0.00 0.00 32 1015.0
20260830182416 97 171 3.0 8.0 0.00 0.00 0.00 33 1015.1
20260830181916 97 207 5.0 13.0 0.00 0.00 0.00 33 1015.2
20260830181416 96 181 6.0 8.0 0.00 0.00 0.00 33 1015.3
20260830180916 96 201 4.0 10.0 0.00 0.00 0.00 34 1015.4
20260830180416 96 188 6.0 10.0 0.00 0.00 0.00 34 1015.4
20260830175916 97 218 4.0 8.0 0.00 0.00 0.00 34 1015.4
20260830175418 96 159 3.0 10.0 0.00 0.00 0.00 34 1015.5
20260830174916 95 98 5.0 7.0 0.00 0.00 0.00 34 1015.5
20260830174416 96 215 4.0 12.0 0.00 0.00 0.00 34 1015.5
20260830173916 96 201 4.0 7.0 0.00 0.00 0.00 33 1015.5
20260830173416 95 177 2.0 10.0 0.00 0.00 0.00 34 1015.5
20260830172917 96 234 5.0 13.0 0.00 0.00 0.00 33 1015.5
20260830172416 95 238 1.0 8.0 0.00 0.00 0.00 34 1015.5
20260830171916 95 212 5.0 8.0 0.00 0.00 0.00 35 1015.5
20260830171416 94 101 2.0 7.0 0.00 0.00 0.00 35 1015.5
20260830170916 95 175 7.0 10.0 0.00 0.00 0.00 34 1015.5
20260830170417 94 121 1.0 11.0 0.00 0.00 0.00 35 1015.5
20260830165916 94 148 8.0 8.0 0.00 0.00 0.00 35 1015.5
20260830165416 94 155 3.0 7.0 0.00 0.00 0.00 35 1015.5
20260830164916 94 108 5.0 8.0 0.00 0.00 0.00 35 1015.5
20260830164417 93 173 4.0 11.0 0.00 0.00 0.00 35 1015.5
20260830163916 93 152 4.0 10.0 0.00 0.00 0.00 35 1015.5
20260830163416 94 123 3.0 7.0 0.00 0.00 0.00 35 1015.6
20260830162916 93 137 3.0 10.0 0.00 0.00 0.00 35 1015.5
20260830162416 93 111 4.0 5.0 0.00 0.00 0.00 35 1015.5
20260830161916 93 205 5.0 10.0 0.00 0.00 0.00 35 1015.4
20260830161416 92 112 4.0 9.0 0.00 0.00 0.00 36 1015.5
20260830160916 92 154 6.0 9.0 0.00 0.00 0.00 36 1015.5
20260830160417 92 157 2.0 13.0 0.00 0.00 0.00 36 1015.5
20260830155916 92 147 5.0 11.0 0.00 0.00 0.00 37 1015.5
20260830155416 91 118 3.0 9.0 0.00 0.00 0.00 37 1015.6
20260830154916 91 135 3.0 8.0 0.00 0.00 0.00 37 1015.5
20260830154416 91 186 7.0 11.0 0.00 0.00 0.00 37 1015.6
20260830153916 91 150 2.0 10.0 0.00 0.00 0.00 37 1015.7
20260830153416 91 146 3.0 11.0 0.00 0.00 0.00 37 1015.7
20260830152916 90 158 5.0 9.0 0.00 0.00 0.00 38 1015.6
20260830152416 90 124 4.0 9.0 0.00 0.00 0.00 37 1015.6
20260830151917 90 76 4.0 11.0 0.00 0.00 0.00 38 1015.6
20260830151416 90 145 3.0 10.0 0.00 0.00 0.00 38 1015.6
20260830150916 90 144 2.0 16.0 0.00 0.00 0.00 38 1015.6
20260830150418 90 86 5.0 13.0 0.00 0.00 0.00 37 1015.7
20260830145916 90 136 3.0 15.0 0.00 0.00 0.00 37 1015.7
20260830145418 90 116 9.0 15.0 0.00 0.00 0.00 37 1015.7
20260830144916 89 151 4.0 11.0 0.00 0.00 0.00 38 1015.7
20260830144416 89 178 7.0 12.0 0.00 0.00 0.00 38 1015.7
20260830143916 89 181 4.0 12.0 0.00 0.00 0.00 38 1015.7
20260830143416 89 169 3.0 10.0 0.00 0.00 0.00 38 1015.6
20260830142916 89 126 7.0 13.0 0.00 0.00 0.00 38 1015.5
20260830142416 88 144 6.0 16.0 0.00 0.00 0.00 38 1015.5
20260830141916 88 161 4.0 9.0 0.00 0.00 0.00 39 1015.4
20260830141416 87 156 3.0 7.0 0.00 0.00 0.00 40 1015.4
20260830140917 86 144 1.0 5.0 0.00 0.00 0.00 42 1015.4
20260830140416 85 142 2.0 7.0 0.00 0.00 0.00 44 1015.4
20260830135916 85 167 1.0 3.0 0.00 0.00 0.00 45 1015.4
20260830135416 85 180 0.0 4.0 0.00 0.00 0.00 45 1015.3
20260830134916 84 130 2.0 2.0 0.00 0.00 0.00 45 1015.2
20260830134416 84 205 0.0 4.0 0.00 0.00 0.00 46 1015.1
20260830133916 84 161 1.0 7.0 0.00 0.00 0.00 46 1015.1
20260830133416 84 96 0.0 3.0 0.00 0.00 0.00 46 1014.9
20260830132916 84 100 1.0 4.0 0.00 0.00 0.00 46 1014.8
20260830132416 84 118 2.0 3.0 0.00 0.00 0.00 47 1014.8
20260830131916 84 142 1.0 3.0 0.00 0.00 0.00 46 1014.7
20260830131416 84 142 3.0 6.0 0.00 0.00 0.00 47 1014.6
20260830130916 83 132 2.0 8.0 0.00 0.00 0.00 47 1014.5
20260830130416 83 141 2.0 5.0 0.00 0.00 0.00 49 1014.4
20260830125916 83 103 0.0 1.0 0.00 0.00 0.00 49 1014.4
20260830125417 83 103 0.0 7.0 0.00 0.00 0.00 49 1014.3
20260830124916 82 102 4.0 6.0 0.00 0.00 0.00 50 1014.3
20260830124416 82 144 2.0 3.0 0.00 0.00 0.00 53 1014.1
20260830123916 81 157 1.0 4.0 0.00 0.00 0.00 54 1014.0
20260830123416 81 49 0.0 3.0 0.00 0.00 0.00 55 1013.9
20260830122916 80 39 1.0 3.0 0.00 0.00 0.00 56 1013.9
20260830122416 80 5 0.0 0.0 0.00 0.00 0.00 57 1013.8
20260830121918 80 5 0.0 0.0 0.00 0.00 0.00 57 1013.9
20260830121416 80 0 0.0 3.0 0.00 0.00 0.00 58 1013.8
20260830120916 80 198 0.0 0.0 0.00 0.00 0.00 58 1013.7
20260830120416 80 198 0.0 0.0 0.00 0.00 0.00 58 1013.7
20260830115916 80 198 0.0 0.0 0.00 0.00 0.00 57 1013.7
20260830115416 80 198 0.0 1.0 0.00 0.00 0.00 57 1013.7
20260830114916 81 198 0.0 0.0 0.00 0.00 0.00 56 1013.7
20260830114416 81 198 0.0 1.0 0.00 0.00 0.00 56 1013.8
20260830113916 81 198 0.0 3.0 0.00 0.00 0.00 55 1013.9
20260830113417 82 198 2.0 3.0 0.00 0.00 0.00 55 1014.0
20260830112918 82 208 0.0 4.0 0.00 0.00 0.00 54 1013.9
20260830112416 82 192 1.0 5.0 0.00 0.00 0.00 54 1013.9
20260830111917 82 212 4.0 5.0 0.00 0.00 0.00 53 1013.9
20260830111416 83 209 0.0 4.0 0.00 0.00 0.00 51 1013.9
20260830110916 84 201 1.0 4.0 0.00 0.00 0.00 50 1013.8
20260830110417 84 191 2.0 4.0 0.00 0.00 0.00 48 1013.7
20260830105916 84 150 1.0 5.0 0.00 0.00 0.00 48 1013.8
20260830105416 84 115 3.0 8.0 0.00 0.00 0.00 49 1013.7
20260830104917 83 128 3.0 4.0 0.00 0.00 0.00 51 1013.7
20260830104418 83 126 3.0 7.0 0.00 0.00 0.00 51 1013.7
20260830103916 84 121 3.0 8.0 0.00 0.00 0.00 51 1013.7
20260830103416 84 128 3.0 7.0 0.00 0.00 0.00 50 1013.7
20260830102916 84 130 3.0 9.0 0.00 0.00 0.00 48 1013.6
20260830102416 85 136 3.0 14.0 0.00 0.00 0.00 47 1013.4
20260830101916 85 92 14.0 14.0 0.00 0.00 0.00 46 1013.3
20260830101417 85 116 7.0 11.0 0.00 0.00 0.00 46 1013.2
20260830100916 85 90 5.0 10.0 0.00 0.00 0.00 46 1013.1
20260830100417 85 82 6.0 9.0 0.00 0.00 0.00 46 1013.1
20260830095916 86 51 5.0 7.0 0.00 0.00 0.00 45 1012.9
20260830095416 86 98 2.0 4.0 0.00 0.00 0.00 44 1012.9
20260830094916 86 0 2.0 7.0 0.00 0.00 0.00 42 1012.7
20260830094417 86 64 4.0 10.0 0.00 0.00 0.00 42 1012.6
20260830093916 86 70 4.0 13.0 0.00 0.00 0.00 42 1012.4
20260830093416 86 16 11.0 13.0 0.00 0.00 0.00 42 1012.3
20260830092917 86 5 9.0 17.0 0.00 0.00 0.00 42 1012.3
20260830092416 86 350 6.0 16.0 0.00 0.00 0.00 42 1012.4
20260830091916 86 341 7.0 17.0 0.00 0.00 0.00 42 1012.4
20260830091416 86 13 7.0 14.0 0.00 0.00 0.00 42 1012.3
20260830090916 86 5 5.0 16.0 0.00 0.00 0.00 43 1012.4
20260830090417 86 9 10.0 15.0 0.00 0.00 0.00 44 1012.3
20260830085917 86 355 14.0 16.0 0.00 0.00 0.00 44 1012.3
20260830085416 86 350 7.0 14.0 0.00 0.00 0.00 45 1012.3
20260830084916 87 355 8.0 14.0 0.00 0.00 0.00 44 1012.3
20260830084416 87 0 8.0 13.0 0.00 0.00 0.00 44 1012.4
20260830083917 87 5 6.0 14.0 0.00 0.00 0.00 44 1012.3
20260830083416 87 340 8.0 13.0 0.00 0.00 0.00 43 1012.2
20260830082916 88 355 3.0 11.0 0.00 0.00 0.00 41 1012.2
20260830082416 88 346 8.0 11.0 0.00 0.00 0.00 41 1012.2
20260830081916 88 24 6.0 11.0 0.00 0.00 0.00 41 1012.1
20260830081416 88 5 10.0 13.0 0.00 0.00 0.00 41 1012.1
20260830080917 89 315 6.0 9.0 0.00 0.00 0.00 38 1012.1
20260830080416 89 349 3.0 5.0 0.00 0.00 0.00 38 1012.0
20260830075916 89 348 2.0 5.0 0.00 0.00 0.00 37 1012.0
20260830075416 89 327 1.0 6.0 0.00 0.00 0.00 37 1011.9
20260830074917 89 329 5.0 7.0 0.00 0.00 0.00 37 1011.9
20260830074416 90 329 3.0 7.0 0.00 0.00 0.00 35 1011.9
20260830073916 90 355 1.0 9.0 0.00 0.00 0.00 35 1012.0
20260830073416 90 10 5.0 16.0 0.00 0.00 0.00 35 1012.2
20260830072916 90 24 12.0 20.0 0.00 0.00 0.00 34 1012.4
20260830072416 91 355 9.0 19.0 0.00 0.00 0.00 33 1012.6
20260830071916 92 15 6.0 12.0 0.00 0.00 0.00 32 1012.7
20260830071416 92 64 2.0 11.0 0.00 0.00 0.00 30 1012.7
20260830070916 92 80 3.0 14.0 0.00 0.00 0.00 32 1012.6
20260830070416 92 96 8.0 17.0 0.00 0.00 0.00 33 1012.4
20260830065916 91 78 12.0 18.0 0.00 0.00 0.00 33 1012.5
20260830065416 91 109 9.0 20.0 0.00 0.00 0.00 34 1012.6
20260830064916 91 112 12.0 21.0 0.00 0.00 0.00 35 1012.6
20260830064416 90 92 10.0 18.0 0.00 0.00 0.00 36 1012.7
20260830063916 90 101 20.0 24.0 0.00 0.00 0.00 37 1012.7
20260830063416 89 111 17.0 26.0 0.00 0.00 0.00 38 1012.8
20260830062918 89 98 15.0 28.0 0.00 0.00 0.00 39 1012.8
20260830062416 89 138 19.0 23.0 0.00 0.00 0.00 40 1013.0
20260830061917 88 137 13.0 30.0 0.00 0.00 0.00 40 1013.0
20260830061416 88 113 24.0 28.0 0.00 0.00 0.00 41 1013.0
20260830060916 87 116 15.0 28.0 0.00 0.00 0.00 41 1013.0
20260830060416 87 109 27.0 33.0 0.00 0.00 0.00 42 1013.1
20260830055916 87 84 15.0 30.0 0.00 0.00 0.00 43 1013.2
20260830055416 87 115 12.0 27.0 0.00 0.00 0.00 43 1013.4
20260830054916 87 115 19.0 26.0 0.00 0.00 0.00 44 1013.7
20260830054416 87 133 15.0 24.0 0.00 0.00 0.00 44 1013.6